STARLINK-34674, 65526

Orbit data source: Space-Track

STARLINK-34674, 65526 is a payload satellite owned by SpaceX/Seattle (US) in SSO that was launched on Sat, 06 Sep 2025 UTC via an FALCON 9 launch vehicle from the Air Force Eastern Test Range (AFETR). Payload-class satellites include a variety of spacecraft equipped with specific instruments for various scientific and technological missions. These include communications satellites like Starlink; space stations such as the ISS; scientific satellites like the Hubble; Earth observation satellites from companies like Planet Labs, Umbra, and HawkEye 360; GPS; miniature CubeSats for education and research; and military/defense satellites.

Loading next visibility...
Identifier
65526, 2025-200G
Orbit
SSO
Country
Flag of USUS
Related business
Manufacturer
SpaceX/Seattle
Mission
Operational Commercial Communications
Bus & Motor
STARLINK V2MO, Unknown motor
Mass
575 kg wet, ~530 kg dry
Launch date (UTC)
2025-09-06 (9 months ago)
Launch vehicle
FALCON 9
Launch site
Air Force Eastern Test Range (AFETR)
Object type
Payload
Rocket body
Debris
Shape & HBR
Box + 2 Pan, 17.7 m
Radar Cross Section
36.964 m², Large (>1 m²)

Expand to show TLE details & history
Last TLE update: 10 hours ago

TLE from 10 hours ago
0 STARLINK-34674
1 65526U 25200G   26171.43266017  .00001281  00000-0  92688-4 0  9998
2 65526  97.3364 240.0253 0001940  94.0504 266.0945 15.05657665 44602
Epoch: 2026-06-20T10:23Z
TLE epoch observation values (Epoch: 2026-06-20T10:23:01.838Z)
Latitude
-0.00007°
Longitude
175.62029°
Altitude
552.652 km
Speed
7.585 km/s
True Right ascension
16h 00m 06s
True Declination
0° 00' 00"
Sunlit
Object was in full shadow at epoch
Visualization orbit readout
Latitude
Unknown
Longitude
Unknown
Altitude
Unknown
Speed
Unknown
Apparent Right ascension
Unknown
Apparent Declination
Unknown
Sunlit
N/A
Visualization observer readout
Local Sidereal Time
07:14:59
Azimuth
Unknown
Elevation
Unknown
Doppler factor
Unknown
Orbital elements
Apogee altitude
547.813 km
Perigee altitude
545.126 km
Semi-major axis
6,924.607 km
Eccentricity
0.00019
Inclination
97.3364°
RAAN
240.0253°
Arg. of periapsis
94.0504°
True anomaly
266.07232°
Mean anomaly
266.0945°
Eccentric anomaly
266.08341°
Mean motion
3.76661 °/min
Orbital period
95.58 mins
BSTAR
0.000092688
Loading maneuver chart data...
Computing Atmospheric mass density...
Loading historical data...
Loading historical data...
Loading historical data...
Loading historical data...
Loading historical data...
Loading historical data...
Loading historical data...

Documentation

Showing up to 5 results
|